Regional Weather Roundup
Issued by NWS

Home | Current Version | Previous Version | Text Only | Print | Product List | Glossary On
Versions: 1 2 3 4 5 6 7 8 9 10 11 12 13 14 15 16 17 18 19 20 21 22 23 24 25 26 27 28 29 30 31 32 33 34 35 36 37 38 39 40 41 42 43 44 45 46 47 48 49 50
000
ASUS42 KFFC 212103
RWRGA
WEATHER ROUNDUP FOR GEORGIA
NATIONAL WEATHER SERVICE PEACHTREE CITY GA
500 PM EDT SUN SEP 21 2014

NOTE: "FAIR" INDICATES FEW OR NO CLOUDS BELOW 12,000 FEET WITH NO
SIGNIFICANT WEATHER AND/OR OBSTRUCTIONS TO VISIBILITY.

* = USE WITH CAUTION. THE STATIONS MARKED WITH AN ASTERISK MAY NOT
REPORT WEATHER SUCH AS PRECIPITATION, FOG, OR THUNDER AND ARE NOT
QUALITY CONTROLLED BY NWS.

THE REMARK "TC" DENOTES TEMPERATURE READING IN DEGREES CELSIUS.

GAZ001>058-212200-
NORTH GEORGIA

CITY           SKY/WX    TMP DP  RH WIND       PRES   REMARKS
ATLANTA        MOSUNNY   87  59  38 W10       29.96F
ATHENS         SUNNY     87  61  41 W8        29.92F
CHAMBLEE       SUNNY     85  60  42 W13G21    29.95F
PEACHTREE CITY PTSUNNY   88  60  38 W5        29.96F
ROME           MOSUNNY   88  63  43 W10G17    29.92F
WEST ATLANTA   SUNNY     86  61  42 W7        29.95F
GAINESVILLE    MOSUNNY   84  62  47 W10G20    29.97F
CARTERSVILLE   MOSUNNY   88  61  40 CALM      29.94F


CITY           SKY/WX    TMP DP  RH WIND       PRES   REMARKS
DALTON*        MOSUNNY   84  64  51 SW5       29.92F
LAWRENCEVILLE* MOSUNNY   84  57  39 W12G17    29.95F
MARIETTA       MOSUNNY   86  63  45 W15G21    29.95F
KENNESAW*      MOSUNNY   86  61  42 NW15G21   29.98S
$$

GAZ059>098-102>109-212200-
CENTRAL GEORGIA

CITY           SKY/WX    TMP DP  RH WIND       PRES   REMARKS
AUGUSTA-BUSH   SUNNY     88  60  38 NW12      29.90S
AUGUSTA-DANIEL SUNNY     88  61  40 W8        29.92F
COLUMBUS       MOSUNNY   89  55  31 N6        29.95F
MACON          MOSUNNY   89  57  33 NW9       29.94F
ROBINS AFB     SUNNY     89  60  38 NW12      29.94S


CITY           SKY/WX    TMP DP  RH WIND       PRES   REMARKS
LAGRANGE*      MOSUNNY   89  69  50 W7        29.97F HX  93
SYLVANIA*      MOSUNNY   88  65  45 W7        29.92F
MILLEDGEVILLE* SUNNY     86  64  48 CALM      29.93F
$$

GAZ099>101-110>166-212200-
SOUTH GEORGIA

CITY           SKY/WX    TMP DP  RH WIND       PRES   REMARKS
SAVANNAH       MOSUNNY   88  62  41 W8        29.92S
VALDOSTA       SUNNY     88  59  37 VRB5      29.96F
ALMA           SUNNY     88  55  32 VRB3      29.94F
ST SIMONS      SUNNY     84  65  52 SE9       29.94F
FT STEWART     SUNNY     89  59  36 W9        29.91F
ALBANY         SUNNY     86  62  44 SW8       29.98S
HUNTER AFB     SUNNY     88  63  43 W9        29.90F
MOODY AFB      SUNNY     86  59  39 VRB2      29.97F
BRUNSWICK      SUNNY     88  59  37 N3        29.95S


CITY           SKY/WX    TMP DP  RH WIND       PRES   REMARKS
BAINBRIDGE*    SUNNY     90  63  40 W3        29.96F HX  90
MOULTRIE*      SUNNY     86  55  35 W5        29.98F
VIDALIA*       MOSUNNY   88  61  40 W6        29.94F
DOUGLAS*       SUNNY     90  52  27 W6        29.96F
$$



USA.gov is the U.S. government's official web portal to all federal, state and local government web resources and services.